STARLINK-35481, 66247

Orbit data source: Space-Track

STARLINK-35481, 66247 is a payload satellite owned by SpaceX/Seattle (US) in LEO that was launched on Wed, 29 Oct 2025 UTC via an FALCON 9 launch vehicle from the Air Force Eastern Test Range (AFETR). Payload-class satellites include a variety of spacecraft equipped with specific instruments for various scientific and technological missions. These include communications satellites like Starlink; space stations such as the ISS; scientific satellites like the Hubble; Earth observation satellites from companies like Planet Labs, Umbra, and HawkEye 360; GPS; miniature CubeSats for education and research; and military/defense satellites.

Loading next visibility...
Identifier
66247, 2025-245P
Orbit
LEO
Country
Flag of USUS
Related business
Manufacturer
SpaceX/Seattle
Mission
Operational Commercial Communications
Bus & Motor
STARLINK V2MO, Unknown motor
Mass
575 kg wet, ~530 kg dry
Launch date (UTC)
2025-10-29 (8 months ago)
Launch vehicle
FALCON 9
Launch site
Air Force Eastern Test Range (AFETR)
Object type
Payload
Rocket body
Debris
Shape & HBR
Box + 2 Pan, 17.7 m
Radar Cross Section
36.964 m², Large (>1 m²)

Expand to show TLE details & history
Last TLE update: 14 hours ago

TLE from 14 hours ago
0 STARLINK-35481
1 66247U 25245P   26171.24842792  .00015577  00000-0  51227-3 0  9993
2 66247  53.1592 167.1711 0001128  80.7738 279.3391 15.31725017 36961
Epoch: 2026-06-20T05:57Z
TLE epoch observation values (Epoch: 2026-06-20T05:57:44.172Z)
Latitude
-0.00001°
Longitude
169.27127°
Altitude
471.44 km
Speed
7.632 km/s
True Right ascension
11h 08m 41s
True Declination
0° 00' 00"
Sunlit
Object was in daylight at epoch
Visualization orbit readout
Latitude
Unknown
Longitude
Unknown
Altitude
Unknown
Speed
Unknown
Apparent Right ascension
Unknown
Apparent Declination
Unknown
Sunlit
N/A
Visualization observer readout
Local Sidereal Time
07:16:46
Azimuth
Unknown
Elevation
Unknown
Doppler factor
Unknown
Orbital elements
Apogee altitude
471.695 km
Perigee altitude
470.15 km
Semi-major axis
6,849.059 km
Eccentricity
0.00011
Inclination
53.1592°
RAAN
167.1711°
Arg. of periapsis
80.7738°
True anomaly
279.32635°
Mean anomaly
279.3391°
Eccentric anomaly
279.33272°
Mean motion
3.8291 °/min
Orbital period
94.02 mins
BSTAR
0.00051227
Loading maneuver chart data...
Computing Atmospheric mass density...
Loading historical data...
Loading historical data...
Loading historical data...
Loading historical data...
Loading historical data...
Loading historical data...
Loading historical data...

Documentation

Showing up to 5 results
|